CMA CGM Musca — 2CAC8 — position and weather

sailwx.info

Track history (hours):
 
Tides and Currents Weather Stations Pressure Air Temp Water Temp Dewpoint Dewpoint Depression Visibility Wind Speed Wind Dir Waves Ship Positions

CMA CGM Musca

Last reported at 2014-Sep-09 05:07 UTC. Time now 2014-Sep-16 05:02 UTC.
Position N 36°16' E 014°57'.

Length 347 m; draft 13.7 m.

Type: Ship (hazmat cat A). MMSI: 235070914.

Date/timePositionNaut miles runAvg speedWind from/ knotsBaromVisibWave heightAir tempDewpointWater temp
2014-Sep-09 05:07N 36°16' E 014°57'1220.8
2014-Sep-09 04:34N 36°18' E 014°43'2120.7
2014-Sep-09 03:34N 36°23' E 014°18'2120.9
2014-Sep-09 02:33N 36°29' E 013°53'2121.4
2014-Sep-09 01:33N 36°35' E 013°27'2121.2
2014-Sep-09 00:33N 36°41' E 013°02'2120.9
2014-Sep-08 23:33N 36°47' E 012°37'2121.0
2014-Sep-08 22:33N 36°54' E 012°12'2120.9
2014-Sep-08 21:32N 37°04' E 011°49'2020.9
2014-Sep-08 20:33N 37°14' E 011°26'6420.9
2014-Sep-08 17:31N 37°34' E 010°10'26223.2
2014-Sep-08 06:12N 37°16' E 004°41'2 3.8
2014-Sep-08 05:33N 37°15' E 004°38'2322.9
2014-Sep-08 04:33N 37°12' E 004°10'11623.2
2014-Sep-07 23:33N 36°52' E 001°47'4723.1
2014-Sep-07 21:32N 36°42' E 000°50'2322.9
2014-Sep-07 20:33N 36°38' E 000°22'2222.2
2014-Sep-07 19:33N 36°35' W 000°05'2322.5
2014-Sep-07 18:33N 36°31' W 000°33'2322.8
2014-Sep-07 17:33N 36°27' W 001°01'2422.8
2014-Sep-07 16:31N 36°22' W 001°30'2323.0
2014-Sep-07 15:32N 36°18' W 001°57'2623.2
2014-Sep-07 14:26N 36°13' W 002°28'2023.0
2014-Sep-07 13:33N 36°10' W 002°53'12024.0
2014-Sep-07 08:34N 35°58' W 005°20'17922.4
2014-Sep-07 00:33N 36°29' W 008°59'48520.6
2014-Sep-06 01:03N 44°34' W 009°13'44320.6
2014-Sep-05 03:30N 49°58' W 001°46'1818.9
2014-Sep-05 02:33N 49°53' W 001°19'1919.4
2014-Sep-05 01:34N 49°44' W 000°52'2120.7
2014-Sep-05 00:33N 49°35' W 000°23'1616.2
2014-Sep-04 23:34N 49°30' E 000°00'7 6.6
2014-Sep-04 22:33N 49°27' E 000°10'0 0.0
2014-Sep-04 21:32N 49°27' E 000°10'0 0.0
2014-Sep-04 20:32N 49°27' E 000°10'0 0.0
2014-Sep-04 19:31N 49°27' E 000°10'0 0.0
2014-Sep-04 18:31N 49°27' E 000°10'0 0.0
2014-Sep-04 17:33N 49°27' E 000°10'0 0.0
2014-Sep-04 16:33N 49°27' E 000°10'0 0.0
2014-Sep-04 15:26N 49°27' E 000°10'0 0.0
2014-Sep-04 14:23N 49°27' E 000°10'0 0.0
2014-Sep-04 13:32N 49°27' E 000°10'0 0.0
2014-Sep-04 12:31N 49°27' E 000°10'0 0.4
2014-Sep-04 11:33N 49°27' E 000°09'1110.6
2014-Sep-04 10:33N 49°31' W 000°06'1514.6
2014-Sep-04 09:33N 49°39' W 000°25'4319.4
2014-Sep-04 07:21N 50°19' W 000°51'1519.3
2014-Sep-04 06:34N 50°34' W 000°57'1211.6
2014-Sep-04 05:33N 50°44' W 001°04'1111.3
2014-Sep-04 04:33N 50°50' W 001°19'6 6.0
2014-Sep-04 03:33N 50°54' W 001°27'1 0.6
2014-Sep-04 02:31N 50°54' W 001°28'0 0.0
2014-Sep-04 01:30N 50°54' W 001°28'0 0.0
2014-Sep-04 00:27N 50°54' W 001°28'0 0.0
2014-Sep-03 23:33N 50°54' W 001°28'0 0.0
2014-Sep-03 21:26N 50°54' W 001°28'0 0.0
2014-Sep-03 20:28N 50°54' W 001°28'0 0.0
2014-Sep-03 19:31N 50°54' W 001°28'0 0.0
2014-Sep-03 18:33N 50°54' W 001°28'0 0.0
2014-Sep-03 17:33N 50°54' W 001°28'0 0.0
2014-Sep-03 16:33N 50°54' W 001°28'0 0.0
2014-Sep-03 15:32N 50°54' W 001°28'0 0.0
2014-Sep-03 14:32N 50°54' W 001°28'0 0.0
2014-Sep-03 13:31N 50°54' W 001°28'0 0.0
2014-Sep-03 12:13N 50°54' W 001°28'0 0.0
2014-Sep-03 11:06N 50°54' W 001°28'0 0.0
2014-Sep-03 10:24N 50°54' W 001°28'0 0.0
2014-Sep-03 09:33N 50°54' W 001°28'0 0.0
2014-Sep-03 08:30N 50°54' W 001°28'0 0.0
2014-Sep-03 07:29N 50°54' W 001°28'0 0.0
2014-Sep-03 06:32N 50°54' W 001°28'0 0.0
2014-Sep-03 05:28N 50°54' W 001°28'0 0.0
2014-Sep-03 04:28N 50°54' W 001°28'0 0.0
2014-Sep-03 03:21N 50°54' W 001°28'2 2.4
2014-Sep-03 02:33N 50°54' W 001°25'8 7.5
2014-Sep-03 01:33N 50°47' W 001°19'1313.3
2014-Sep-03 00:34N 50°43' W 000°59'8 7.5
2014-Sep-02 23:33N 50°35' W 000°56'1313.1
2014-Sep-02 22:34N 50°31' W 000°37'1818.5
2014-Sep-02 21:34N 50°31' W 000°08'2121.0
2014-Sep-02 20:33N 50°35' E 000°25'2121.4
2014-Sep-02 19:34N 50°45' E 000°55'2020.4
2014-Sep-02 18:33N 50°57' E 001°21'1919.2
2014-Sep-02 17:34N 51°11' E 001°41'1818.4
2014-Sep-02 16:34N 51°25' E 002°01'1818.3
2014-Sep-02 15:33N 51°22' E 002°30'1514.8
2014-Sep-02 14:34N 51°25' E 002°54'1212.5
2014-Sep-02 13:33N 51°21' E 003°12'1 0.7
2014-Sep-02 12:33N 51°20' E 003°12'0 0.0
2014-Sep-02 11:33N 51°20' E 003°12'0 0.0
2014-Sep-02 10:33N 51°20' E 003°12'0 0.0
2014-Sep-02 09:32N 51°20' E 003°12'0 0.0
2014-Sep-02 08:32N 51°20' E 003°12'0 0.0
2014-Sep-02 07:31N 51°20' E 003°12'0 0.0
2014-Sep-02 06:31N 51°20' E 003°12'0 0.0
2014-Sep-02 05:33N 51°20' E 003°12'0 0.0
2014-Sep-02 04:30N 51°20' E 003°12'0 0.0
2014-Sep-02 03:33N 51°20' E 003°12'0 0.3
2014-Sep-02 02:34N 51°20' E 003°12'5 5.2
2014-Sep-02 01:34N 51°24' E 003°06'7 7.0
2014-Sep-02 00:33N 51°31' E 003°05'1311.8
2014-Sep-01 23:27N 51°43' E 003°12'1112.0
2014-Sep-01 22:33N 51°53' E 003°17'1110.6
2014-Sep-01 21:34N 52°03' E 003°25'1110.7
2014-Sep-01 20:34N 52°03' E 003°42'9 9.2
2014-Sep-01 19:34N 52°02' E 003°57'6 6.1
2014-Sep-01 18:31N 51°57' E 004°04'0 0.0
2014-Sep-01 17:31N 51°57' E 004°04'0 0.0
2014-Sep-01 16:33N 51°57' E 004°04'0 0.0
2014-Sep-01 15:30N 51°57' E 004°04'0 0.0
2014-Sep-01 14:23N 51°57' E 004°04'0 0.0
2014-Sep-01 13:29N 51°57' E 004°04'0 0.0
2014-Sep-01 12:28N 51°57' E 004°04'0 0.0
2014-Sep-01 11:31N 51°57' E 004°04'0 0.0
2014-Sep-01 10:31N 51°57' E 004°04'0 0.0
2014-Sep-01 09:24N 51°57' E 004°04'0 0.0
2014-Sep-01 08:33N 51°57' E 004°04'0 0.0
2014-Sep-01 07:32N 51°57' E 004°04'0 0.0
2014-Sep-01 06:29N 51°57' E 004°04'0 0.0
2014-Sep-01 05:31N 51°57' E 004°04'0 0.0
2014-Sep-01 04:28N 51°57' E 004°04'0 0.0
2014-Sep-01 03:33N 51°57' E 004°04'0 0.0
2014-Sep-01 02:33N 51°57' E 004°04'0 0.0
2014-Sep-01 01:33N 51°57' E 004°04'0 0.0
2014-Sep-01 00:32N 51°57' E 004°04'0 0.0
2014-Aug-31 23:32N 51°57' E 004°04'0 0.0
2014-Aug-31 22:31N 51°57' E 004°04'0 0.0
2014-Aug-31 21:28N 51°57' E 004°04'0 0.0
2014-Aug-31 20:30N 51°57' E 004°04'0 0.0
2014-Aug-31 19:33N 51°57' E 004°04'0 0.0
2014-Aug-31 18:33N 51°57' E 004°04'0 0.0
2014-Aug-31 17:31N 51°57' E 004°04'0 0.0
2014-Aug-31 16:32N 51°57' E 004°04'0 0.0
2014-Aug-31 15:34N 51°57' E 004°04'2 1.5
2014-Aug-31 14:34N 51°58' E 004°05'8 8.1
2014-Aug-31 13:33N 52°00' E 003°53'6 5.9
2014-Aug-31 12:33N 52°05' E 003°46'6 6.2
2014-Aug-31 11:33N 52°11' E 003°46'6 6.0
2014-Aug-31 10:34N 52°15' E 003°38'3 3.4
2014-Aug-31 09:34N 52°17' E 003°43'8 7.7
2014-Aug-31 08:33N 52°24' E 003°49'1918.8
2014-Aug-31 07:33N 52°42' E 003°54'2418.3
2014-Aug-31 06:14N 53°04' E 004°12'1719.1
2014-Aug-31 05:19N 53°18' E 004°30'1520.2
2014-Aug-31 04:33N 53°30' E 004°45'2121.4
2014-Aug-31 03:33N 53°38' E 005°18'2121.1
2014-Aug-31 02:33N 53°44' E 005°52'6019.8
2014-Aug-30 23:33N 53°58' E 007°31'1414.3
2014-Aug-30 22:33N 53°52' E 007°52'1211.8
2014-Aug-30 21:34N 53°47' E 008°10'1514.8
2014-Aug-30 20:34N 53°37' E 008°29'3 2.6
2014-Aug-30 19:26N 53°35' E 008°32'0 0.0
2014-Aug-30 18:32N 53°35' E 008°32'0 0.0
2014-Aug-30 17:28N 53°35' E 008°32'0 0.0
2014-Aug-30 16:31N 53°35' E 008°32'0 0.0
2014-Aug-30 15:31N 53°35' E 008°32'0 0.0
2014-Aug-30 14:30N 53°35' E 008°32'0 0.0
2014-Aug-30 13:33N 53°35' E 008°32'0 0.0
2014-Aug-30 12:29N 53°35' E 008°32'0 0.0
2014-Aug-30 11:29N 53°35' E 008°32'0 0.0
2014-Aug-30 10:31N 53°35' E 008°32'0 0.0
2014-Aug-30 09:31N 53°35' E 008°32'0 0.0
2014-Aug-30 08:33N 53°35' E 008°32'0 0.0
2014-Aug-30 07:30N 53°35' E 008°32'0 0.0
2014-Aug-30 06:30N 53°35' E 008°32'0 0.0
2014-Aug-30 05:32N 53°35' E 008°32'  
Track history (hours):
 
Tides and Currents Weather Stations Pressure Air Temp Water Temp Dewpoint Dewpoint Depression Visibility Wind Speed Wind Dir Waves Ship Positions

CMA CGM Musca

Last reported at 2014-Sep-09 05:07 UTC. Time now 2014-Sep-16 05:02 UTC.
Position N 36°16' E 014°57'.

Length 347 m; draft 13.7 m.

Type: Ship (hazmat cat A). MMSI: 235070914.

Date/timePositionNaut miles runAvg speedWind from/ knotsBaromVisibWave heightAir tempDewpointWater temp
2014-Sep-09 05:07N 36°16' E 014°57'1220.8
2014-Sep-09 04:34N 36°18' E 014°43'2120.7
2014-Sep-09 03:34N 36°23' E 014°18'2120.9
2014-Sep-09 02:33N 36°29' E 013°53'2121.4
2014-Sep-09 01:33N 36°35' E 013°27'2121.2
2014-Sep-09 00:33N 36°41' E 013°02'2120.9
2014-Sep-08 23:33N 36°47' E 012°37'2121.0
2014-Sep-08 22:33N 36°54' E 012°12'2120.9
2014-Sep-08 21:32N 37°04' E 011°49'2020.9
2014-Sep-08 20:33N 37°14' E 011°26'6420.9
2014-Sep-08 17:31N 37°34' E 010°10'26223.2
2014-Sep-08 06:12N 37°16' E 004°41'2 3.8
2014-Sep-08 05:33N 37°15' E 004°38'2322.9
2014-Sep-08 04:33N 37°12' E 004°10'11623.2
2014-Sep-07 23:33N 36°52' E 001°47'4723.1
2014-Sep-07 21:32N 36°42' E 000°50'2322.9
2014-Sep-07 20:33N 36°38' E 000°22'2222.2
2014-Sep-07 19:33N 36°35' W 000°05'2322.5
2014-Sep-07 18:33N 36°31' W 000°33'2322.8
2014-Sep-07 17:33N 36°27' W 001°01'2422.8
2014-Sep-07 16:31N 36°22' W 001°30'2323.0
2014-Sep-07 15:32N 36°18' W 001°57'2623.2
2014-Sep-07 14:26N 36°13' W 002°28'2023.0
2014-Sep-07 13:33N 36°10' W 002°53'12024.0
2014-Sep-07 08:34N 35°58' W 005°20'17922.4
2014-Sep-07 00:33N 36°29' W 008°59'48520.6
2014-Sep-06 01:03N 44°34' W 009°13'44320.6
2014-Sep-05 03:30N 49°58' W 001°46'1818.9
2014-Sep-05 02:33N 49°53' W 001°19'1919.4
2014-Sep-05 01:34N 49°44' W 000°52'2120.7
2014-Sep-05 00:33N 49°35' W 000°23'1616.2
2014-Sep-04 23:34N 49°30' E 000°00'7 6.6
2014-Sep-04 22:33N 49°27' E 000°10'0 0.0
2014-Sep-04 21:32N 49°27' E 000°10'0 0.0
2014-Sep-04 20:32N 49°27' E 000°10'0 0.0
2014-Sep-04 19:31N 49°27' E 000°10'0 0.0
2014-Sep-04 18:31N 49°27' E 000°10'0 0.0
2014-Sep-04 17:33N 49°27' E 000°10'0 0.0
2014-Sep-04 16:33N 49°27' E 000°10'0 0.0
2014-Sep-04 15:26N 49°27' E 000°10'0 0.0
2014-Sep-04 14:23N 49°27' E 000°10'0 0.0
2014-Sep-04 13:32N 49°27' E 000°10'0 0.0
2014-Sep-04 12:31N 49°27' E 000°10'0 0.4
2014-Sep-04 11:33N 49°27' E 000°09'1110.6
2014-Sep-04 10:33N 49°31' W 000°06'1514.6
2014-Sep-04 09:33N 49°39' W 000°25'4319.4
2014-Sep-04 07:21N 50°19' W 000°51'1519.3
2014-Sep-04 06:34N 50°34' W 000°57'1211.6
2014-Sep-04 05:33N 50°44' W 001°04'1111.3
2014-Sep-04 04:33N 50°50' W 001°19'6 6.0
2014-Sep-04 03:33N 50°54' W 001°27'1 0.6
2014-Sep-04 02:31N 50°54' W 001°28'0 0.0
2014-Sep-04 01:30N 50°54' W 001°28'0 0.0
2014-Sep-04 00:27N 50°54' W 001°28'0 0.0
2014-Sep-03 23:33N 50°54' W 001°28'0 0.0
2014-Sep-03 21:26N 50°54' W 001°28'0 0.0
2014-Sep-03 20:28N 50°54' W 001°28'0 0.0
2014-Sep-03 19:31N 50°54' W 001°28'0 0.0
2014-Sep-03 18:33N 50°54' W 001°28'0 0.0
2014-Sep-03 17:33N 50°54' W 001°28'0 0.0
2014-Sep-03 16:33N 50°54' W 001°28'0 0.0
2014-Sep-03 15:32N 50°54' W 001°28'0 0.0
2014-Sep-03 14:32N 50°54' W 001°28'0 0.0
2014-Sep-03 13:31N 50°54' W 001°28'0 0.0
2014-Sep-03 12:13N 50°54' W 001°28'0 0.0
2014-Sep-03 11:06N 50°54' W 001°28'0 0.0
2014-Sep-03 10:24N 50°54' W 001°28'0 0.0
2014-Sep-03 09:33N 50°54' W 001°28'0 0.0
2014-Sep-03 08:30N 50°54' W 001°28'0 0.0
2014-Sep-03 07:29N 50°54' W 001°28'0 0.0
2014-Sep-03 06:32N 50°54' W 001°28'0 0.0
2014-Sep-03 05:28N 50°54' W 001°28'0 0.0
2014-Sep-03 04:28N 50°54' W 001°28'0 0.0
2014-Sep-03 03:21N 50°54' W 001°28'2 2.4
2014-Sep-03 02:33N 50°54' W 001°25'8 7.5
2014-Sep-03 01:33N 50°47' W 001°19'1313.3
2014-Sep-03 00:34N 50°43' W 000°59'8 7.5
2014-Sep-02 23:33N 50°35' W 000°56'1313.1
2014-Sep-02 22:34N 50°31' W 000°37'1818.5
2014-Sep-02 21:34N 50°31' W 000°08'2121.0
2014-Sep-02 20:33N 50°35' E 000°25'2121.4
2014-Sep-02 19:34N 50°45' E 000°55'2020.4
2014-Sep-02 18:33N 50°57' E 001°21'1919.2
2014-Sep-02 17:34N 51°11' E 001°41'1818.4
2014-Sep-02 16:34N 51°25' E 002°01'1818.3
2014-Sep-02 15:33N 51°22' E 002°30'1514.8
2014-Sep-02 14:34N 51°25' E 002°54'1212.5
2014-Sep-02 13:33N 51°21' E 003°12'1 0.7
2014-Sep-02 12:33N 51°20' E 003°12'0 0.0
2014-Sep-02 11:33N 51°20' E 003°12'0 0.0
2014-Sep-02 10:33N 51°20' E 003°12'0 0.0
2014-Sep-02 09:32N 51°20' E 003°12'0 0.0
2014-Sep-02 08:32N 51°20' E 003°12'0 0.0
2014-Sep-02 07:31N 51°20' E 003°12'0 0.0
2014-Sep-02 06:31N 51°20' E 003°12'0 0.0
2014-Sep-02 05:33N 51°20' E 003°12'0 0.0
2014-Sep-02 04:30N 51°20' E 003°12'0 0.0
2014-Sep-02 03:33N 51°20' E 003°12'0 0.3
2014-Sep-02 02:34N 51°20' E 003°12'5 5.2
2014-Sep-02 01:34N 51°24' E 003°06'7 7.0
2014-Sep-02 00:33N 51°31' E 003°05'1311.8
2014-Sep-01 23:27N 51°43' E 003°12'1112.0
2014-Sep-01 22:33N 51°53' E 003°17'1110.6
2014-Sep-01 21:34N 52°03' E 003°25'1110.7
2014-Sep-01 20:34N 52°03' E 003°42'9 9.2
2014-Sep-01 19:34N 52°02' E 003°57'6 6.1
2014-Sep-01 18:31N 51°57' E 004°04'0 0.0
2014-Sep-01 17:31N 51°57' E 004°04'0 0.0
2014-Sep-01 16:33N 51°57' E 004°04'0 0.0
2014-Sep-01 15:30N 51°57' E 004°04'0 0.0
2014-Sep-01 14:23N 51°57' E 004°04'0 0.0
2014-Sep-01 13:29N 51°57' E 004°04'0 0.0
2014-Sep-01 12:28N 51°57' E 004°04'0 0.0
2014-Sep-01 11:31N 51°57' E 004°04'0 0.0
2014-Sep-01 10:31N 51°57' E 004°04'0 0.0
2014-Sep-01 09:24N 51°57' E 004°04'0 0.0
2014-Sep-01 08:33N 51°57' E 004°04'0 0.0
2014-Sep-01 07:32N 51°57' E 004°04'0 0.0
2014-Sep-01 06:29N 51°57' E 004°04'0 0.0
2014-Sep-01 05:31N 51°57' E 004°04'0 0.0
2014-Sep-01 04:28N 51°57' E 004°04'0 0.0
2014-Sep-01 03:33N 51°57' E 004°04'0 0.0
2014-Sep-01 02:33N 51°57' E 004°04'0 0.0
2014-Sep-01 01:33N 51°57' E 004°04'0 0.0
2014-Sep-01 00:32N 51°57' E 004°04'0 0.0
2014-Aug-31 23:32N 51°57' E 004°04'0 0.0
2014-Aug-31 22:31N 51°57' E 004°04'0 0.0
2014-Aug-31 21:28N 51°57' E 004°04'0 0.0
2014-Aug-31 20:30N 51°57' E 004°04'0 0.0
2014-Aug-31 19:33N 51°57' E 004°04'0 0.0
2014-Aug-31 18:33N 51°57' E 004°04'0 0.0
2014-Aug-31 17:31N 51°57' E 004°04'0 0.0
2014-Aug-31 16:32N 51°57' E 004°04'0 0.0
2014-Aug-31 15:34N 51°57' E 004°04'2 1.5
2014-Aug-31 14:34N 51°58' E 004°05'8 8.1
2014-Aug-31 13:33N 52°00' E 003°53'6 5.9
2014-Aug-31 12:33N 52°05' E 003°46'6 6.2
2014-Aug-31 11:33N 52°11' E 003°46'6 6.0
2014-Aug-31 10:34N 52°15' E 003°38'3 3.4
2014-Aug-31 09:34N 52°17' E 003°43'8 7.7
2014-Aug-31 08:33N 52°24' E 003°49'1918.8
2014-Aug-31 07:33N 52°42' E 003°54'2418.3
2014-Aug-31 06:14N 53°04' E 004°12'1719.1
2014-Aug-31 05:19N 53°18' E 004°30'1520.2
2014-Aug-31 04:33N 53°30' E 004°45'2121.4
2014-Aug-31 03:33N 53°38' E 005°18'2121.1
2014-Aug-31 02:33N 53°44' E 005°52'6019.8
2014-Aug-30 23:33N 53°58' E 007°31'1414.3
2014-Aug-30 22:33N 53°52' E 007°52'1211.8
2014-Aug-30 21:34N 53°47' E 008°10'1514.8
2014-Aug-30 20:34N 53°37' E 008°29'3 2.6
2014-Aug-30 19:26N 53°35' E 008°32'0 0.0
2014-Aug-30 18:32N 53°35' E 008°32'0 0.0
2014-Aug-30 17:28N 53°35' E 008°32'0 0.0
2014-Aug-30 16:31N 53°35' E 008°32'0 0.0
2014-Aug-30 15:31N 53°35' E 008°32'0 0.0
2014-Aug-30 14:30N 53°35' E 008°32'0 0.0
2014-Aug-30 13:33N 53°35' E 008°32'0 0.0
2014-Aug-30 12:29N 53°35' E 008°32'0 0.0
2014-Aug-30 11:29N 53°35' E 008°32'0 0.0
2014-Aug-30 10:31N 53°35' E 008°32'0 0.0
2014-Aug-30 09:31N 53°35' E 008°32'0 0.0
2014-Aug-30 08:33N 53°35' E 008°32'0 0.0
2014-Aug-30 07:30N 53°35' E 008°32'0 0.0
2014-Aug-30 06:30N 53°35' E 008°32'0 0.0
2014-Aug-30 05:32N 53°35' E 008°32'  

Dump ship's entire track history